| time (UTC) | temp F | wind direction | speed knots | gust knots | rain 1hr in | rain 24hr in | rain mn in | humidity % | barometer mb |
| 20260504080539 | 42 | 41 | 0.0 | 0.9 | 0.00 | 0.00 | 0.00 | 94 | 1004.5 |
| 20260504050352 | 48 | 9 | 0.0 | 0.0 | 0.00 | 0.00 | 0.00 | 85 | 1006.0 |
| 20260504045849 | 49 | 9 | 0.0 | 0.0 | 0.00 | 0.03 | 0.03 | 84 | 1006.0 |
| 20260504045349 | 49 | 9 | 0.0 | 0.0 | 0.00 | 0.03 | 0.03 | 84 | 1005.8 |
| 20260504044847 | 49 | 10 | 0.0 | 0.0 | 0.00 | 0.03 | 0.03 | 83 | 1005.8 |
| 20260504044344 | 49 | 17 | 0.0 | 0.0 | 0.00 | 0.03 | 0.03 | 83 | 1005.8 |
| 20260504043841 | 49 | 20 | 0.0 | 0.0 | 0.00 | 0.03 | 0.03 | 82 | 1005.7 |
| 20260504043338 | 50 | 348 | 0.0 | 0.0 | 0.00 | 0.03 | 0.03 | 82 | 1006.0 |
| 20260504042835 | 50 | 349 | 0.0 | 0.0 | 0.00 | 0.03 | 0.03 | 81 | 1005.9 |
| 20260504042332 | 50 | 335 | 0.0 | 0.0 | 0.00 | 0.03 | 0.03 | 80 | 1005.8 |
| 20260504041828 | 50 | 335 | 0.0 | 0.0 | 0.00 | 0.03 | 0.03 | 79 | 1005.8 |
| 20260504041324 | 51 | 335 | 0.0 | 0.0 | 0.00 | 0.03 | 0.03 | 78 | 1005.8 |
| 20260504040821 | 51 | 335 | 0.0 | 0.0 | 0.00 | 0.03 | 0.03 | 76 | 1005.8 |
| 20260504040318 | 52 | 335 | 0.0 | 0.0 | 0.00 | 0.03 | 0.03 | 75 | 1005.9 |
| 20260504035814 | 53 | 327 | 0.0 | 0.0 | 0.00 | 0.03 | 0.03 | 74 | 1005.7 |
| 20260504035312 | 53 | 326 | 0.0 | 0.0 | 0.00 | 0.03 | 0.03 | 73 | 1005.8 |
| 20260504034809 | 54 | 344 | 0.0 | 0.0 | 0.00 | 0.03 | 0.03 | 70 | 1005.7 |
| 20260504034306 | 55 | 344 | 0.0 | 0.0 | 0.00 | 0.03 | 0.03 | 70 | 1005.6 |
| 20260504033803 | 55 | 349 | 0.0 | 0.0 | 0.00 | 0.03 | 0.03 | 69 | 1005.8 |
| 20260504033301 | 56 | 352 | 0.0 | 0.0 | 0.00 | 0.03 | 0.03 | 68 | 1005.9 |
| 20260504032757 | 57 | 346 | 0.0 | 0.0 | 0.00 | 0.03 | 0.03 | 66 | 1005.9 |
| 20260504032254 | 57 | 7 | 0.0 | 0.0 | 0.00 | 0.03 | 0.03 | 65 | 1005.8 |
| 20260504031751 | 57 | 8 | 0.0 | 0.0 | 0.00 | 0.03 | 0.03 | 64 | 1005.8 |
| 20260504031249 | 58 | 0 | 0.0 | 0.0 | 0.00 | 0.03 | 0.03 | 63 | 1005.7 |
| 20260504030744 | 58 | 328 | 0.0 | 0.0 | 0.00 | 0.03 | 0.03 | 62 | 1005.8 |
| 20260504030242 | 59 | 1 | 0.0 | 0.0 | 0.00 | 0.03 | 0.03 | 63 | 1005.5 |
| 20260504025738 | 59 | 323 | 0.0 | 0.0 | 0.00 | 0.03 | 0.03 | 62 | 1005.8 |
| 20260504025235 | 59 | 22 | 0.0 | 0.0 | 0.00 | 0.03 | 0.03 | 62 | 1005.5 |
| 20260504024732 | 58 | 65 | 0.0 | 0.9 | 0.00 | 0.03 | 0.03 | 63 | 1005.5 |
| 20260504024228 | 59 | 329 | 0.0 | 0.0 | 0.00 | 0.03 | 0.03 | 62 | 1005.7 |
| 20260504023726 | 59 | 332 | 0.0 | 0.9 | 0.00 | 0.03 | 0.03 | 62 | 1005.5 |
| 20260504023221 | 58 | 347 | 0.0 | 0.9 | 0.00 | 0.03 | 0.03 | 63 | 1005.4 |
| 20260504022718 | 58 | 347 | 0.0 | 0.0 | 0.00 | 0.03 | 0.03 | 63 | 1005.6 |
| 20260504022214 | 59 | 348 | 0.0 | 0.0 | 0.00 | 0.03 | 0.03 | 63 | 1005.4 |
| 20260504021712 | 59 | 334 | 0.0 | 0.0 | 0.00 | 0.03 | 0.03 | 60 | 1005.5 |
| 20260504021209 | 60 | 328 | 0.0 | 0.0 | 0.00 | 0.03 | 0.03 | 58 | 1005.4 |
| 20260504020705 | 60 | 306 | 0.0 | 0.0 | 0.00 | 0.03 | 0.03 | 59 | 1005.4 |
| 20260504020201 | 60 | 356 | 0.0 | 0.0 | 0.00 | 0.03 | 0.03 | 58 | 1005.3 |
| 20260504015658 | 61 | 14 | 0.0 | 0.0 | 0.00 | 0.03 | 0.03 | 57 | 1005.4 |
| 20260504015154 | 61 | 350 | 0.0 | 0.0 | 0.00 | 0.03 | 0.03 | 56 | 1005.3 |
| 20260504014650 | 62 | 351 | 0.0 | 0.0 | 0.00 | 0.03 | 0.03 | 55 | 1005.4 |
| 20260504014147 | 62 | 353 | 0.0 | 0.0 | 0.00 | 0.03 | 0.03 | 54 | 1005.3 |
| 20260504013645 | 62 | 330 | 0.0 | 0.0 | 0.00 | 0.03 | 0.03 | 53 | 1005.3 |
| 20260504013142 | 62 | 26 | 0.0 | 0.0 | 0.00 | 0.03 | 0.03 | 53 | 1005.3 |
| 20260504012639 | 62 | 340 | 0.0 | 0.0 | 0.00 | 0.03 | 0.03 | 53 | 1005.1 |
| 20260504012137 | 62 | 154 | 0.0 | 0.9 | 0.00 | 0.03 | 0.03 | 52 | 1005.0 |
| 20260504011633 | 62 | 12 | 0.0 | 0.0 | 0.00 | 0.03 | 0.03 | 53 | 1005.2 |
| 20260504011130 | 62 | 10 | 0.0 | 0.0 | 0.00 | 0.03 | 0.03 | 52 | 1005.0 |
| 20260504010626 | 62 | 347 | 0.0 | 0.0 | 0.00 | 0.03 | 0.03 | 51 | 1005.0 |
| 20260504010122 | 62 | 339 | 0.0 | 0.0 | 0.00 | 0.03 | 0.03 | 51 | 1005.0 |
| 20260504005619 | 63 | 338 | 0.0 | 0.0 | 0.00 | 0.03 | 0.03 | 51 | 1004.8 |
| 20260504005116 | 63 | 12 | 0.0 | 0.0 | 0.00 | 0.03 | 0.03 | 51 | 1005.0 |
| 20260504004614 | 63 | 316 | 0.0 | 0.0 | 0.00 | 0.03 | 0.03 | 51 | 1005.0 |
| 20260504004111 | 64 | 315 | 0.0 | 0.0 | 0.00 | 0.03 | 0.03 | 52 | 1004.8 |
| 20260504003607 | 65 | 316 | 0.0 | 0.0 | 0.00 | 0.03 | 0.03 | 49 | 1004.9 |
| 20260504003104 | 66 | 316 | 0.0 | 0.0 | 0.00 | 0.03 | 0.03 | 48 | 1004.9 |
| 20260504002600 | 67 | 316 | 0.0 | 0.0 | 0.00 | 0.03 | 0.03 | 47 | 1005.0 |
| 20260504002058 | 67 | 316 | 0.0 | 0.9 | 0.00 | 0.03 | 0.03 | 45 | 1004.8 |
| 20260504001556 | 68 | 311 | 0.0 | 0.0 | 0.00 | 0.03 | 0.03 | 44 | 1004.9 |
| 20260504001051 | 68 | 312 | 0.0 | 0.9 | 0.00 | 0.03 | 0.03 | 42 | 1004.8 |
| 20260504000549 | 68 | 346 | 0.0 | 0.9 | 0.00 | 0.03 | 0.03 | 43 | 1004.9 |
| 20260504000046 | 69 | 259 | 0.0 | 0.9 | 0.00 | 0.03 | 0.03 | 42 | 1004.9 |
| 20260503235544 | 69 | 322 | 0.0 | 0.9 | 0.00 | 0.03 | 0.03 | 43 | 1005.0 |
| 20260503235041 | 69 | 298 | 0.9 | 1.7 | 0.00 | 0.03 | 0.03 | 41 | 1005.1 |
| 20260503234538 | 69 | 4 | 0.0 | 0.9 | 0.00 | 0.03 | 0.03 | 41 | 1005.0 |
| 20260503234037 | 69 | 115 | 0.0 | 1.7 | 0.00 | 0.03 | 0.03 | 41 | 1004.9 |
| 20260503233533 | 70 | 328 | 0.9 | 0.9 | 0.00 | 0.03 | 0.03 | 40 | 1004.9 |
| 20260503233029 | 70 | 289 | 0.9 | 2.6 | 0.00 | 0.03 | 0.03 | 40 | 1004.9 |
| 20260503232526 | 70 | 252 | 0.0 | 1.7 | 0.00 | 0.03 | 0.03 | 41 | 1005.0 |
| 20260503232023 | 70 | 252 | 1.7 | 3.5 | 0.00 | 0.03 | 0.03 | 38 | 1005.0 |
| 20260503231521 | 70 | 21 | 1.7 | 2.6 | 0.00 | 0.03 | 0.03 | 39 | 1005.1 |
| 20260503231018 | 71 | 336 | 0.9 | 2.6 | 0.00 | 0.03 | 0.03 | 40 | 1005.2 |
| 20260503230514 | 71 | 344 | 2.6 | 3.5 | 0.00 | 0.03 | 0.03 | 39 | 1005.3 |
| 20260503230012 | 71 | 243 | 1.7 | 3.5 | 0.00 | 0.03 | 0.03 | 38 | 1005.3 |
| 20260503225509 | 71 | 258 | 1.7 | 5.2 | 0.00 | 0.03 | 0.03 | 38 | 1005.4 |
| 20260503225004 | 72 | 285 | 0.9 | 1.7 | 0.00 | 0.03 | 0.03 | 38 | 1005.3 |
| 20260503224501 | 71 | 331 | 0.9 | 2.6 | 0.00 | 0.03 | 0.03 | 38 | 1005.5 |
| 20260503223959 | 72 | 97 | 0.9 | 3.5 | 0.00 | 0.03 | 0.03 | 38 | 1005.3 |
| 20260503223457 | 72 | 16 | 1.7 | 2.6 | 0.00 | 0.03 | 0.03 | 41 | 1005.5 |
| 20260503222952 | 72 | 8 | 0.9 | 5.2 | 0.00 | 0.03 | 0.03 | 38 | 1005.3 |
| 20260503222451 | 73 | 343 | 2.6 | 5.2 | 0.00 | 0.03 | 0.03 | 38 | 1005.5 |
| 20260503221948 | 73 | 13 | 1.7 | 3.5 | 0.00 | 0.03 | 0.03 | 37 | 1005.5 |
| 20260503221447 | 73 | 159 | 0.9 | 3.5 | 0.00 | 0.03 | 0.03 | 39 | 1005.6 |
| 20260503220943 | 73 | 141 | 0.9 | 2.6 | 0.00 | 0.03 | 0.03 | 38 | 1005.4 |
| 20260503220439 | 73 | 320 | 0.9 | 2.6 | 0.00 | 0.03 | 0.03 | 38 | 1005.5 |
| 20260503215936 | 73 | 154 | 0.9 | 2.6 | 0.00 | 0.03 | 0.03 | 38 | 1005.5 |
| 20260503215433 | 73 | 228 | 0.0 | 1.7 | 0.00 | 0.03 | 0.03 | 39 | 1005.6 |
| 20260503214931 | 73 | 297 | 1.7 | 1.7 | 0.00 | 0.03 | 0.03 | 37 | 1005.5 |
| 20260503214429 | 73 | 254 | 0.9 | 2.6 | 0.00 | 0.03 | 0.03 | 39 | 1005.5 |
| 20260503213926 | 73 | 238 | 2.6 | 3.5 | 0.00 | 0.03 | 0.03 | 38 | 1005.5 |
| 20260503213424 | 73 | 237 | 1.7 | 2.6 | 0.00 | 0.03 | 0.03 | 38 | 1005.6 |
| 20260503212920 | 72 | 251 | 0.9 | 1.7 | 0.00 | 0.03 | 0.03 | 43 | 1005.6 |
| 20260503212418 | 71 | 345 | 0.0 | 1.7 | 0.00 | 0.03 | 0.03 | 40 | 1006.0 |
| 20260503211915 | 72 | 117 | 1.7 | 5.2 | 0.00 | 0.03 | 0.03 | 39 | 1005.7 |
| 20260503211412 | 71 | 249 | 1.7 | 7.8 | 0.00 | 0.03 | 0.03 | 40 | 1006.0 |
| 20260503210907 | 71 | 219 | 1.7 | 5.2 | 0.00 | 0.03 | 0.03 | 39 | 1005.9 |
| 20260503210404 | 71 | 265 | 1.7 | 5.2 | 0.00 | 0.03 | 0.03 | 39 | 1005.7 |
| 20260503205858 | 71 | 256 | 1.7 | 3.5 | 0.00 | 0.03 | 0.03 | 41 | 1006.0 |
| 20260503205356 | 71 | 250 | 1.7 | 2.6 | 0.00 | 0.03 | 0.03 | 40 | 1006.1 |
| 20260503204852 | 72 | 225 | 2.6 | 7.0 | 0.00 | 0.03 | 0.03 | 38 | 1006.1 |
| 20260503204349 | 72 | 239 | 0.9 | 5.2 | 0.00 | 0.03 | 0.03 | 40 | 1006.4 |
| 20260503203847 | 71 | 314 | 0.0 | 2.6 | 0.00 | 0.03 | 0.03 | 40 | 1006.5 |
| 20260503203344 | 70 | 219 | 4.3 | 8.7 | 0.00 | 0.03 | 0.03 | 40 | 1006.7 |
| 20260503202841 | 70 | 288 | 2.6 | 7.0 | 0.00 | 0.03 | 0.03 | 39 | 1006.6 |
| 20260503202339 | 70 | 336 | 0.0 | 5.2 | 0.00 | 0.03 | 0.03 | 41 | 1006.8 |
| 20260503201837 | 70 | 242 | 1.7 | 5.2 | 0.00 | 0.03 | 0.03 | 41 | 1006.7 |
| 20260503201333 | 70 | 123 | 0.9 | 3.5 | 0.00 | 0.03 | 0.03 | 39 | 1006.9 |
| 20260503200831 | 70 | 217 | 5.2 | 7.0 | 0.00 | 0.03 | 0.03 | 40 | 1007.0 |
| 20260503200327 | 69 | 307 | 0.9 | 1.7 | 0.00 | 0.03 | 0.03 | 48 | 1006.9 |
| 20260503195825 | 69 | 336 | 2.6 | 3.5 | 0.00 | 0.03 | 0.03 | 43 | 1006.9 |
| 20260503195321 | 69 | 276 | 2.6 | 7.8 | 0.00 | 0.03 | 0.03 | 40 | 1007.2 |
| 20260503194818 | 69 | 316 | 3.5 | 5.2 | 0.00 | 0.03 | 0.03 | 42 | 1007.4 |
| 20260503194314 | 68 | 358 | 0.0 | 1.7 | 0.00 | 0.03 | 0.03 | 44 | 1007.2 |
| 20260503193810 | 68 | 280 | 1.7 | 5.2 | 0.00 | 0.03 | 0.03 | 43 | 1007.6 |
| 20260503193306 | 68 | 186 | 2.6 | 2.6 | 0.00 | 0.03 | 0.03 | 43 | 1007.7 |
| 20260503192802 | 68 | 357 | 1.7 | 3.5 | 0.00 | 0.03 | 0.03 | 42 | 1007.7 |
| 20260503192258 | 68 | 259 | 1.7 | 6.1 | 0.00 | 0.03 | 0.03 | 43 | 1007.8 |
| 20260503191754 | 68 | 329 | 4.3 | 7.8 | 0.00 | 0.03 | 0.03 | 41 | 1007.7 |
| 20260503191251 | 67 | 157 | 2.6 | 5.2 | 0.00 | 0.03 | 0.03 | 44 | 1008.0 |
| 20260503190748 | 67 | 338 | 0.0 | 5.2 | 0.00 | 0.03 | 0.03 | 42 | 1007.8 |
| 20260503190245 | 67 | 303 | 4.3 | 8.7 | 0.00 | 0.03 | 0.03 | 40 | 1008.3 |
| 20260503185742 | 67 | 228 | 2.6 | 6.1 | 0.00 | 0.03 | 0.03 | 42 | 1008.1 |
| 20260503185238 | 68 | 194 | 3.5 | 7.0 | 0.00 | 0.03 | 0.03 | 40 | 1008.0 |
| 20260503184733 | 68 | 236 | 3.5 | 7.8 | 0.00 | 0.03 | 0.03 | 40 | 1008.2 |
| 20260503184229 | 67 | 19 | 0.9 | 3.5 | 0.00 | 0.03 | 0.03 | 48 | 1008.2 |
| 20260503183726 | 65 | 185 | 1.7 | 5.2 | 0.00 | 0.03 | 0.03 | 50 | 1008.4 |
| 20260503183223 | 65 | 141 | 1.7 | 5.2 | 0.00 | 0.03 | 0.03 | 51 | 1008.3 |
| 20260503182721 | 65 | 26 | 1.7 | 2.6 | 0.00 | 0.03 | 0.03 | 53 | 1008.7 |
| 20260503182220 | 65 | 343 | 3.5 | 6.1 | 0.00 | 0.03 | 0.03 | 52 | 1008.6 |
| 20260503181715 | 65 | 299 | 1.7 | 6.1 | 0.00 | 0.03 | 0.03 | 51 | 1008.8 |
| 20260503181213 | 64 | 267 | 3.5 | 7.0 | 0.00 | 0.03 | 0.03 | 51 | 1008.8 |
| 20260503180709 | 63 | 331 | 0.9 | 3.5 | 0.00 | 0.03 | 0.03 | 55 | 1008.8 |
| 20260503180208 | 64 | 4 | 4.3 | 7.0 | 0.00 | 0.03 | 0.03 | 49 | 1009.1 |
| 20260503175704 | 64 | 236 | 1.7 | 7.0 | 0.00 | 0.03 | 0.03 | 50 | 1009.0 |
| 20260503175202 | 63 | 317 | 1.7 | 2.6 | 0.00 | 0.03 | 0.03 | 51 | 1008.7 |
| 20260503174657 | 62 | 259 | 1.7 | 3.5 | 0.00 | 0.03 | 0.03 | 52 | 1009.0 |
| 20260503174155 | 62 | 292 | 3.5 | 7.0 | 0.00 | 0.03 | 0.03 | 55 | 1008.9 |
| 20260503173650 | 62 | 199 | 3.5 | 7.0 | 0.00 | 0.03 | 0.03 | 53 | 1009.0 |
| 20260503173147 | 62 | 147 | 1.7 | 6.1 | 0.00 | 0.03 | 0.03 | 55 | 1009.0 |
| 20260503172644 | 62 | 149 | 1.7 | 5.2 | 0.00 | 0.03 | 0.03 | 52 | 1009.0 |
| 20260503172141 | 62 | 84 | 1.7 | 7.0 | 0.00 | 0.03 | 0.03 | 51 | 1008.9 |
| 20260503171637 | 62 | 210 | 5.2 | 8.7 | 0.00 | 0.03 | 0.03 | 48 | 1009.1 |
| 20260503171135 | 62 | 122 | 1.7 | 5.2 | 0.00 | 0.03 | 0.03 | 52 | 1009.2 |
| 20260503170632 | 61 | 219 | 3.5 | 3.5 | 0.00 | 0.03 | 0.03 | 50 | 1009.2 |
| 20260503170128 | 61 | 24 | 5.2 | 8.7 | 0.00 | 0.03 | 0.03 | 49 | 1009.2 |
| 20260503150520 | 49 | 283 | 0.0 | 2.6 | 0.00 | 0.02 | 0.02 | 82 | 1012.3 |
| 20260503131413 | 51 | 141 | 1.7 | 2.6 | 0.00 | 0.00 | 0.00 | 65 | 1013.1 |
| 20260503130910 | 51 | 340 | 0.9 | 1.7 | 0.00 | 0.00 | 0.00 | 65 | 1013.3 |
| 20260503130407 | 51 | 139 | 1.7 | 3.5 | 0.00 | 0.00 | 0.00 | 63 | 1013.4 |
| 20260503110811 | 49 | 56 | 0.0 | 3.5 | 0.00 | 0.00 | 0.00 | 54 | 1013.2 |
| 20260503110308 | 49 | 271 | 2.6 | 3.5 | 0.00 | 0.00 | 0.00 | 54 | 1013.0 |
| 20260503100234 | 48 | 322 | 0.0 | 0.9 | 0.00 | 0.00 | 0.00 | 54 | 1013.5 |
| 20260503090154 | 48 | 21 | 0.0 | 0.0 | 0.00 | 0.00 | 0.00 | 53 | 1013.7 |
| 20260503081624 | 48 | 337 | 0.0 | 2.6 | 0.00 | 0.00 | 0.00 | 51 | 1013.7 |
| 20260503081121 | 47 | 15 | 0.0 | 0.9 | 0.00 | 0.00 | 0.00 | 52 | 1014.0 |